Погода в Вырубове

Россия / Тамбовская область     53°06′00″N   40°56′34″E
темп.,
°C
ветер,
м/с
пор.,
м/с
влажн.,
%
обл.,
%
осадки,
мм/ч
давл.,
гПа
погр.,
м
6 марта, сб
сб600:00−8зсз239369 0.0 101521
03:00−10сз129484 0.0 101621
06:00−11с1191100 0.0 101621
09:00−9св2290100 0.0 101738
12:00−7ссв1184100 0.0 1016215
15:00−6ссз2291100 0.1 1015215
18:00−8ссз3392100 0.3 101574
21:00−11сз349571 0.3 101649
7 марта, вс
вс700:00−12з34930 0.0 101656
03:00−13зюз46930 0.0 101691
06:00−13юз410930 0.0 1015154
09:00−9юз7148843 0.0 1013484
12:00−5юз101678100 0.0 1008940
15:00−4юз111884100 0.1 10041220
18:00−3юз101794100 1.8 10001105
21:00−6зсз51288100 3.9 1001470
8 марта, пн
пн800:00−10юз448467 0.0 100250
03:00−10юз478670 0.0 1002130
06:00−10юз512935 0.0 999236
09:00−5зюз8139353 0.2 9971011
12:00−7з9137767 0.4 9991365
15:00−6зсз9138583 0.5 10021308
18:00−8зсз6148594 0.1 1005570
21:00−9з6138883 0.1 1008408
9 марта, вт
вт900:00−11з5119315 0.0 1009251
03:00−13з489644 0.0 1011159
06:00−13зсз369694 0.1 1012150
09:00−13зсз369592 0.1 1013214
12:00−11сз469081 0.0 1015469
15:00−10сз578890 0.1 1016632
18:00−14сз4893100 0.0 1017165
21:00−17сз349651 0.0 102075
10 марта, ср
ср1000:00−18зсз349825 0.0 102141
03:00−18з339752 0.0 102129
06:00−17юз359779 0.0 102097
09:00−14ююз469589 0.5 1019346
12:00−10з3589100 0.3 1019605
15:00−9ссз1188100 0.4 1018293
18:00−11ссв5895100 0.6 1019311
21:00−15ссв5895100 0.9 1022244